Back to catalog

DELTA 1 DEB

AlivePO
NORAD 21496·DEBRIS·🇺🇸 United States

Launched Jun 12, 1975 from Vandenberg Space Force Base

Loading…

Next Passes (next 24 hours)

TLE

FreshSource: Space-Track

Epoch: Sep 14, 2026, 02:28 UTC

1 21496U 75052FR  26257.10334691 -.00000007  00000-0  99718-4 0  9996
2 21496  99.8131 120.2478 0340156 201.2013 314.7484 12.82626997653925

Track DELTA 1 DEB in real time with AllMySat

Download on the App Store